📊 Raw Sensor Data

Showing records 45776 to 45800 of 85,059 total

ID Distance (ft) Battery V Battery A Int Temp (°F) Int Humid (%) Ext Temp (°F) Solar V RSSI SNR Time Stamp
39296 -- 4.01 0 95 40 86 5.10 -75 8 04/30/2025 03:00 PM
39295 -- 4.01 0 94 40 84 5.10 -75 9 04/30/2025 02:45 PM
39294 -- 4.01 0 93 41 83 5.10 -75 8 04/30/2025 02:30 PM
39293 -- 4.01 0 93 40 83 5.10 -76 8 04/30/2025 02:15 PM
39292 -- 4.01 0 92 40 83 5.10 -74 9 04/30/2025 02:01 PM
39291 -- 4.01 0 92 40 82 5.10 -74 9 04/30/2025 01:45 PM
39290 -- 4.01 0 91 40 83 5.10 -73 9 04/30/2025 01:30 PM
39289 -- 4.01 0 90 39 82 5.20 -73 9 04/30/2025 01:15 PM
39288 -- 4.01 0 89 40 85 5.10 -72 8 04/30/2025 01:00 PM
39287 -- 4.01 0 86 40 79 5.10 -74 8 04/30/2025 12:46 PM
39286 -- 4.01 0 86 40 80 5.10 -74 9 04/30/2025 12:30 PM
39285 -- 4.04 0 84 40 79 5.10 -74 8 04/30/2025 12:15 PM
39284 -- 4.07 0 82 40 78 5.10 -74 9 04/30/2025 12:00 PM
39283 -- 4.02 0 81 41 76 5.10 -75 8 04/30/2025 11:45 AM
39282 -- 4.01 0 80 41 76 5.10 -74 8 04/30/2025 11:31 AM
39281 -- 4.01 0 80 40 75 5.10 -75 8 04/30/2025 11:15 AM
39280 -- 4.01 0 79 39 78 5.10 -74 10 04/30/2025 11:00 AM
39279 -- 4.11 0 77 39 79 5.10 -74 8 04/30/2025 10:45 AM
39278 -- 4.01 0 75 39 73 5.10 -74 9 04/30/2025 10:30 AM
39277 -- 4.07 0 73 39 77 5.10 -74 8 04/30/2025 10:15 AM
39276 -- 4.01 0 71 39 74 5.10 -74 8 04/30/2025 10:00 AM
39275 -- 4.01 0 70 39 74 5.10 -73 9 04/30/2025 09:45 AM
39274 -- 4.01 0 68 39 70 5.10 -74 8 04/30/2025 09:30 AM
39273 -- 4.01 0 66 40 68 5.10 -74 8 04/30/2025 09:15 AM
39272 -- 4.01 0 64 40 66 5.10 -74 8 04/30/2025 09:00 AM